This is the latest recevied weather packets stored in our database for station/object N3EDS. If no packets are shown the sender has not sent any weather packets the latest 10 day(s).
| Time | Temp. | Humidity | Pressure | Rain* | Wind** | Luminosity | Snow |
|---|---|---|---|---|---|---|---|
| 1777723403 | 2.22° C | 93% | 1015.5 hPa | 0 mm | - | 52 W/m² | - |
| 1777723101 | 2.22° C | 93% | 1015.7 hPa | 0 mm | - | 59 W/m² | - |
| 1777722798 | 2.22° C | 93% | 1015.5 hPa | 0 mm | - | 58 W/m² | - |
| 1777722494 | 2.22° C | 94% | 1015.5 hPa | 0 mm | - | 70 W/m² | - |
| 1777722191 | 2.22° C | 95% | 1015.7 hPa | 0 mm | - | 53 W/m² | - |
| 1777721888 | 2.22° C | 95% | 1015.7 hPa | 0 mm | - | 51 W/m² | - |
| 1777721586 | 1.67° C | 95% | 1015.6 hPa | 0 mm | - | 40 W/m² | - |
| 1777721284 | 1.67° C | 96% | 1015.7 hPa | 0 mm | - | 21 W/m² | - |
| 1777720981 | 1.67° C | 96% | 1015.9 hPa | 0 mm | - | 31 W/m² | - |
| 1777720678 | 1.67° C | 97% | 1015.6 hPa | 0 mm | - | 34 W/m² | - |
| 1777720376 | 1.67° C | 97% | 1015.4 hPa | 0 mm | - | 30 W/m² | - |
| 1777720073 | 1.67° C | 97% | 1015.5 hPa | 0 mm | - | 22 W/m² | - |
| 1777719771 | 1.67° C | 98% | 1015.5 hPa | 0 mm | - | 16 W/m² | - |
| 1777719469 | 1.67° C | 98% | 1015.4 hPa | 0 mm | - | 12 W/m² | - |
| 1777719164 | 1.11° C | 98% | 1015.3 hPa | 0 mm | - | 16 W/m² | - |
| 1777718863 | 1.11° C | 98% | 1015.2 hPa | 0 mm | - | 12 W/m² | - |
| 1777718560 | 1.11° C | 97% | 1015.4 hPa | 0 mm | - | 13 W/m² | - |
| 1777718257 | 1.11° C | 96% | 1015 hPa | 0 mm | - | 10 W/m² | - |
| 1777717955 | 1.11° C | 94% | 1014.9 hPa | 0 mm | - | 8 W/m² | - |
| 1777717651 | 1.67° C | 93% | 1015.3 hPa | 0 mm | - | 6 W/m² | - |
| 1777717348 | 1.67° C | 95% | 1015.3 hPa | 0 mm | - | 4 W/m² | - |
| 1777717046 | 1.67° C | 94% | 1014.9 hPa | 0 mm | - | 2 W/m² | - |
| 1777716744 | 1.67° C | 94% | 1015 hPa | 0 mm | - | 1 W/m² | - |
| 1777716442 | 2.22° C | 96% | 1015.3 hPa | 0 mm | - | 1 W/m² | - |
| 1777716140 | 1.67° C | 96% | 1015.3 hPa | 0 mm | - | 0 W/m² | - |
* Rain latest hour (hover to see other rain measurements)
** Current wind speed in m/s (hover to see current wind gust speed)